Time,TemperatureF,DewpointF,PressureIn,WindDirection,WindDirectionDegrees,WindSpeedMPH,WindSpeedGustMPH,Humidity,HourlyPrecipIn,Conditions,Clouds,dailyrainin,SoftwareType,DateUTC
2013-04-01 00:00:00,36.9,32.0,28.50,NNW,342,0.0,0.0,42,0.00,,,-99.99,wx200d/1.3,2013-04-01 04:00:00,
2013-04-01 00:04:00,36.7,32.0,28.50,NNW,343,0.0,0.0,42,0.00,,,-99.99,wx200d/1.3,2013-04-01 04:04:00,
2013-04-01 00:08:00,36.5,32.0,28.50,NNW,330,0.0,0.0,42,0.00,,,-99.99,wx200d/1.3,2013-04-01 04:08:00,
2013-04-01 00:14:00,36.7,32.0,28.50,NNW,341,0.0,0.0,43,0.08,,,-99.99,wx200d/1.3,2013-04-01 04:14:00,
2013-04-01 00:18:00,36.5,32.0,28.47,NNE,13,0.0,0.0,43,0.08,,,-99.99,wx200d/1.3,2013-04-01 04:18:00,
2013-04-01 00:24:00,36.3,32.0,28.47,NNW,339,0.0,0.0,43,0.08,,,-99.99,wx200d/1.3,2013-04-01 04:24:00,
2013-04-01 00:30:00,36.3,32.0,28.47,NW,307,0.0,0.0,43,0.08,,,-99.99,wx200d/1.3,2013-04-01 04:30:00,
2013-04-01 00:36:00,36.3,32.0,28.47,NNW,343,0.0,0.0,43,0.08,,,-99.99,wx200d/1.3,2013-04-01 04:36:00,
2013-04-01 00:42:00,36.5,32.0,28.47,NNW,343,0.0,0.0,43,0.08,,,-99.99,wx200d/1.3,2013-04-01 04:42:00,
2013-04-01 00:48:00,36.5,32.0,28.47,NNW,337,0.0,0.0,43,0.08,,,-99.99,wx200d/1.3,2013-04-01 04:48:00,
2013-04-01 00:54:00,36.5,32.0,28.47,NNW,337,0.0,0.0,44,0.08,,,-99.99,wx200d/1.3,2013-04-01 04:54:00,
2013-04-01 01:00:00,36.7,32.0,28.47,North,353,0.0,0.0,44,0.12,,,-99.99,wx200d/1.3,2013-04-01 05:00:00,
2013-04-01 01:06:00,36.5,32.0,28.47,North,353,0.0,0.0,44,0.12,,,-99.99,wx200d/1.3,2013-04-01 05:06:00,
2013-04-01 01:12:00,36.3,32.0,28.47,North,353,0.0,0.0,44,0.12,,,-99.99,wx200d/1.3,2013-04-01 05:12:00,
2013-04-01 01:18:00,36.3,32.0,28.44,NNW,338,0.0,0.0,44,0.12,,,-99.99,wx200d/1.3,2013-04-01 05:18:00,
2013-04-01 01:24:00,36.1,32.0,28.44,NNW,344,0.0,0.0,44,0.12,,,-99.99,wx200d/1.3,2013-04-01 05:24:00,
2013-04-01 01:30:00,36.1,32.0,28.44,North,0,0.0,0.0,44,0.12,,,-99.99,wx200d/1.3,2013-04-01 05:30:00,
2013-04-01 01:36:00,36.3,32.0,28.44,North,0,0.0,0.0,46,0.12,,,-99.99,wx200d/1.3,2013-04-01 05:36:00,
2013-04-01 01:42:00,36.3,32.0,28.44,NW,321,0.0,0.0,46,0.12,,,-99.99,wx200d/1.3,2013-04-01 05:42:00,
2013-04-01 01:48:00,36.5,32.0,28.41,North,353,0.0,0.0,46,0.12,,,-99.99,wx200d/1.3,2013-04-01 05:48:00,
2013-04-01 01:54:00,36.5,32.0,28.41,North,357,0.0,0.0,47,0.12,,,-99.99,wx200d/1.3,2013-04-01 05:54:00,
2013-04-01 02:00:00,36.3,32.0,28.41,NW,322,0.0,0.0,46,0.12,,,-99.99,wx200d/1.3,2013-04-01 06:00:00,
2013-04-01 02:06:00,36.3,32.0,28.41,NNW,348,0.0,0.0,47,0.12,,,-99.99,wx200d/1.3,2013-04-01 06:06:00,
2013-04-01 02:12:00,36.1,32.0,28.41,North,353,0.0,2.2,47,0.12,,,-99.99,wx200d/1.3,2013-04-01 06:12:00,
2013-04-01 02:18:00,36.1,32.0,28.41,North,353,0.0,2.7,49,0.12,,,-99.99,wx200d/1.3,2013-04-01 06:18:00,
2013-04-01 02:24:00,36.1,32.0,28.41,NNW,348,0.0,0.0,49,0.12,,,-99.99,wx200d/1.3,2013-04-01 06:24:00,
2013-04-01 02:30:00,36.1,32.0,28.41,North,0,0.0,0.0,50,0.12,,,-99.99,wx200d/1.3,2013-04-01 06:30:00,
2013-04-01 02:36:00,36.1,32.0,28.38,North,5,0.0,0.0,51,0.12,,,-99.99,wx200d/1.3,2013-04-01 06:36:00,
2013-04-01 02:42:00,36.3,32.0,28.38,North,357,0.0,0.0,52,0.08,,,-99.99,wx200d/1.3,2013-04-01 06:42:00,
2013-04-01 02:48:00,36.1,32.0,28.38,North,0,0.0,0.0,52,0.08,,,-99.99,wx200d/1.3,2013-04-01 06:48:00,
2013-04-01 02:54:00,36.1,32.0,28.38,North,6,0.0,3.1,54,0.08,,,-99.99,wx200d/1.3,2013-04-01 06:54:00,
2013-04-01 03:00:00,36.1,32.0,28.38,North,357,0.0,2.2,56,0.08,,,-99.99,wx200d/1.3,2013-04-01 07:00:00,
2013-04-01 03:06:00,36.1,32.0,28.38,North,1,2.2,0.0,58,0.08,,,-99.99,wx200d/1.3,2013-04-01 07:06:00,
2013-04-01 03:12:00,36.1,32.0,28.38,NNW,327,0.0,0.0,60,0.08,,,-99.99,wx200d/1.3,2013-04-01 07:12:00,
2013-04-01 03:18:00,36.1,32.0,28.38,NNE,12,0.0,0.0,61,0.08,,,-99.99,wx200d/1.3,2013-04-01 07:18:00,
2013-04-01 03:24:00,36.1,32.0,28.38,North,0,0.0,0.0,63,0.08,,,-99.99,wx200d/1.3,2013-04-01 07:24:00,
2013-04-01 03:30:00,36.1,32.0,28.38,NNE,12,0.0,0.0,64,0.08,,,-99.99,wx200d/1.3,2013-04-01 07:30:00,
2013-04-01 03:36:00,36.0,32.0,28.38,NNW,348,0.0,2.7,64,0.08,,,-99.99,wx200d/1.3,2013-04-01 07:36:00,
2013-04-01 03:42:00,36.1,32.0,28.38,North,353,0.0,0.0,65,0.08,,,-99.99,wx200d/1.3,2013-04-01 07:42:00,
2013-04-01 03:48:00,36.1,32.0,28.35,North,357,0.0,2.2,65,0.08,,,-99.99,wx200d/1.3,2013-04-01 07:48:00,
2013-04-01 03:54:00,36.0,32.0,28.35,North,0,0.0,0.0,64,0.08,,,-99.99,wx200d/1.3,2013-04-01 07:54:00,
2013-04-01 04:00:00,36.0,32.0,28.35,NNW,346,0.0,0.0,66,0.08,,,-99.99,wx200d/1.3,2013-04-01 08:00:00,
2013-04-01 04:06:00,35.8,32.0,28.35,NNW,342,0.0,0.0,66,0.08,,,-99.99,wx200d/1.3,2013-04-01 08:06:00,
2013-04-01 04:12:00,36.0,32.0,28.35,North,0,0.0,0.0,67,0.08,,,-99.99,wx200d/1.3,2013-04-01 08:12:00,
2013-04-01 04:20:00,36.1,32.0,28.35,NNW,343,2.2,0.0,69,0.08,,,-99.99,wx200d/1.3,2013-04-01 08:20:00,
2013-04-01 04:26:00,36.1,32.0,28.35,NNW,336,0.0,2.2,69,0.08,,,-99.99,wx200d/1.3,2013-04-01 08:26:00,
2013-04-01 04:32:00,36.1,32.0,28.35,NNW,345,0.0,0.0,69,0.08,,,-99.99,wx200d/1.3,2013-04-01 08:32:00,
2013-04-01 04:38:00,36.3,32.0,28.35,NNW,341,0.0,0.0,69,0.08,,,-99.99,wx200d/1.3,2013-04-01 08:38:00,
2013-04-01 04:44:00,36.3,32.0,28.35,North,353,0.0,2.2,70,0.00,,,-99.99,wx200d/1.3,2013-04-01 08:44:00,
2013-04-01 04:50:00,36.3,32.0,28.35,NW,314,0.0,0.0,69,0.00,,,-99.99,wx200d/1.3,2013-04-01 08:50:00,
2013-04-01 04:56:00,36.3,32.0,28.35,NNW,346,0.0,2.7,69,0.00,,,-99.99,wx200d/1.3,2013-04-01 08:56:00,
2013-04-01 05:02:00,36.3,32.0,28.38,North,350,0.0,0.0,70,0.00,,,-99.99,wx200d/1.3,2013-04-01 09:02:00,
2013-04-01 05:08:00,36.1,32.0,28.38,NNW,346,0.0,0.0,69,0.00,,,-99.99,wx200d/1.3,2013-04-01 09:08:00,
2013-04-01 05:14:00,36.1,32.0,28.38,WNW,283,0.0,0.0,69,0.00,,,-99.99,wx200d/1.3,2013-04-01 09:14:00,
2013-04-01 05:20:00,36.3,32.0,28.38,NNW,345,0.0,0.0,70,0.00,,,-99.99,wx200d/1.3,2013-04-01 09:20:00,
2013-04-01 05:26:00,36.3,32.0,28.38,North,353,0.0,0.0,70,0.00,,,-99.99,wx200d/1.3,2013-04-01 09:26:00,
2013-04-01 05:32:00,36.3,32.0,28.38,NW,310,0.0,0.0,70,0.00,,,-99.99,wx200d/1.3,2013-04-01 09:32:00,
2013-04-01 05:38:00,36.3,32.0,28.38,NW,308,0.0,0.0,69,0.00,,,-99.99,wx200d/1.3,2013-04-01 09:38:00,
2013-04-01 05:44:00,36.3,32.0,28.38,NW,308,0.0,0.0,69,0.00,,,-99.99,wx200d/1.3,2013-04-01 09:44:00,
2013-04-01 05:50:00,36.1,32.0,28.38,NW,308,0.0,0.0,69,0.00,,,-99.99,wx200d/1.3,2013-04-01 09:50:00,
2013-04-01 05:56:00,36.1,32.0,28.38,WNW,303,0.0,0.0,69,0.00,,,-99.99,wx200d/1.3,2013-04-01 09:56:00,
2013-04-01 06:02:00,36.1,32.0,28.38,WNW,303,0.0,0.0,69,0.00,,,-99.99,wx200d/1.3,2013-04-01 10:02:00,
2013-04-01 06:08:00,36.1,32.0,28.38,WNW,288,0.0,0.0,69,0.00,,,-99.99,wx200d/1.3,2013-04-01 10:08:00,
2013-04-01 06:14:00,36.0,32.0,28.38,SSW,194,0.0,0.0,69,0.00,,,-99.99,wx200d/1.3,2013-04-01 10:14:00,
2013-04-01 06:20:00,36.0,32.0,28.38,SSW,207,0.0,0.0,68,0.00,,,-99.99,wx200d/1.3,2013-04-01 10:20:00,
2013-04-01 06:26:00,35.8,32.0,28.38,SW,222,0.0,0.0,68,0.00,,,-99.99,wx200d/1.3,2013-04-01 10:26:00,
2013-04-01 06:32:00,35.8,32.0,28.38,SW,214,0.0,0.0,68,0.00,,,-99.99,wx200d/1.3,2013-04-01 10:32:00,
2013-04-01 06:38:00,35.8,32.0,28.38,WSW,239,0.0,0.0,68,0.00,,,-99.99,wx200d/1.3,2013-04-01 10:38:00,
2013-04-01 06:44:00,35.8,32.0,28.38,WSW,239,0.0,0.0,68,0.00,,,-99.99,wx200d/1.3,2013-04-01 10:44:00,
2013-04-01 06:50:00,35.8,32.0,28.41,SW,228,0.0,0.0,69,0.00,,,-99.99,wx200d/1.3,2013-04-01 10:50:00,
2013-04-01 06:56:00,35.8,32.0,28.41,SW,218,0.0,0.0,69,0.00,,,-99.99,wx200d/1.3,2013-04-01 10:56:00,
2013-04-01 07:02:00,35.8,32.0,28.41,WSW,254,0.0,0.0,69,0.00,,,-99.99,wx200d/1.3,2013-04-01 11:02:00,
2013-04-01 07:08:00,35.8,32.0,28.41,WSW,252,0.0,0.0,69,0.00,,,-99.99,wx200d/1.3,2013-04-01 11:08:00,
2013-04-01 07:14:00,35.6,32.0,28.41,SW,235,0.0,0.0,69,0.00,,,-99.99,wx200d/1.3,2013-04-01 11:14:00,
2013-04-01 07:20:00,35.8,32.0,28.41,SW,231,0.0,0.0,69,0.00,,,-99.99,wx200d/1.3,2013-04-01 11:20:00,
2013-04-01 07:26:00,35.8,32.0,28.41,SW,231,0.0,0.0,69,0.00,,,-99.99,wx200d/1.3,2013-04-01 11:26:00,
2013-04-01 07:32:00,35.8,32.0,28.41,West,268,0.0,0.0,69,0.00,,,-99.99,wx200d/1.3,2013-04-01 11:32:00,
2013-04-01 07:38:00,35.8,32.0,28.41,WSW,255,0.0,0.0,69,0.00,,,-99.99,wx200d/1.3,2013-04-01 11:38:00,
2013-04-01 07:44:00,35.8,32.0,28.41,SW,221,0.0,0.0,69,0.00,,,-99.99,wx200d/1.3,2013-04-01 11:44:00,
2013-04-01 07:50:00,36.0,32.0,28.41,West,281,0.0,0.0,69,0.00,,,-99.99,wx200d/1.3,2013-04-01 11:50:00,
2013-04-01 07:56:00,36.0,32.0,28.41,NW,314,0.0,0.0,69,0.00,,,-99.99,wx200d/1.3,2013-04-01 11:56:00,
2013-04-01 08:02:00,36.1,32.0,28.41,NW,319,0.0,0.0,69,0.00,,,-99.99,wx200d/1.3,2013-04-01 12:02:00,
2013-04-01 08:08:00,36.1,32.0,28.41,NNW,348,0.0,0.0,69,0.00,,,-99.99,wx200d/1.3,2013-04-01 12:08:00,
2013-04-01 08:14:00,36.3,32.0,28.41,West,267,0.0,0.0,70,0.00,,,-99.99,wx200d/1.3,2013-04-01 12:14:00,
2013-04-01 08:20:00,36.5,32.0,28.41,SSW,211,0.0,0.0,70,0.00,,,-99.99,wx200d/1.3,2013-04-01 12:20:00,
2013-04-01 08:26:00,36.7,32.0,28.41,North,0,0.0,0.0,69,0.00,,,-99.99,wx200d/1.3,2013-04-01 12:26:00,
2013-04-01 08:32:00,36.7,32.0,28.41,WSW,258,0.0,0.0,69,0.00,,,-99.99,wx200d/1.3,2013-04-01 12:32:00,
2013-04-01 08:38:00,36.7,32.0,28.41,WSW,239,0.0,2.7,69,0.00,,,-99.99,wx200d/1.3,2013-04-01 12:38:00,
2013-04-01 08:44:00,36.9,32.0,28.41,South,189,0.0,0.0,69,0.00,,,-99.99,wx200d/1.3,2013-04-01 12:44:00,
2013-04-01 08:50:00,36.9,32.0,28.38,NNW,330,0.0,0.0,69,0.00,,,-99.99,wx200d/1.3,2013-04-01 12:50:00,
2013-04-01 08:56:00,36.9,32.0,28.38,SW,224,0.0,0.0,69,0.00,,,-99.99,wx200d/1.3,2013-04-01 12:56:00,
2013-04-01 09:02:00,36.9,32.0,28.38,SSW,194,0.0,0.0,69,0.00,,,-99.99,wx200d/1.3,2013-04-01 13:02:00,
2013-04-01 09:08:00,36.9,32.0,28.38,NW,306,0.0,0.0,69,0.00,,,-99.99,wx200d/1.3,2013-04-01 13:08:00,
2013-04-01 09:14:00,36.9,32.0,28.38,SSW,208,0.0,0.0,69,0.00,,,-99.99,wx200d/1.3,2013-04-01 13:14:00,
2013-04-01 09:20:00,36.9,32.0,28.38,West,260,0.0,3.1,69,0.00,,,-99.99,wx200d/1.3,2013-04-01 13:20:00,
2013-04-01 09:26:00,36.9,32.0,28.38,West,259,0.0,0.0,69,0.00,,,-99.99,wx200d/1.3,2013-04-01 13:26:00,
2013-04-01 09:32:00,36.9,32.0,28.38,SW,221,0.0,0.0,69,0.00,,,-99.99,wx200d/1.3,2013-04-01 13:32:00,
2013-04-01 09:38:00,36.9,32.0,28.38,SW,214,0.0,0.0,69,0.00,,,-99.99,wx200d/1.3,2013-04-01 13:38:00,
2013-04-01 09:44:00,36.9,32.0,28.38,West,266,0.0,0.0,69,0.00,,,-99.99,wx200d/1.3,2013-04-01 13:44:00,
2013-04-01 09:50:00,36.9,32.0,28.38,SW,227,0.0,0.0,69,0.00,,,-99.99,wx200d/1.3,2013-04-01 13:50:00,
2013-04-01 09:56:00,36.9,32.0,28.38,SW,225,2.2,2.7,69,0.00,,,-99.99,wx200d/1.3,2013-04-01 13:56:00,
2013-04-01 10:02:00,41.5,32.0,28.38,SW,226,0.0,0.0,61,0.00,,,-99.99,wx200d/1.3,2013-04-01 14:02:00,
2013-04-01 10:08:00,41.5,32.0,28.38,SW,236,0.0,0.0,61,0.00,,,-99.99,wx200d/1.3,2013-04-01 14:08:00,
2013-04-01 10:14:00,41.0,32.0,28.38,WSW,257,3.1,0.0,58,0.00,,,-99.99,wx200d/1.3,2013-04-01 14:14:00,
2013-04-01 10:20:00,41.0,32.0,28.38,SW,214,2.7,4.0,54,0.00,,,-99.99,wx200d/1.3,2013-04-01 14:20:00,
2013-04-01 10:26:00,41.2,32.0,28.38,WSW,243,2.7,0.0,51,0.00,,,-99.99,wx200d/1.3,2013-04-01 14:26:00,
2013-04-01 10:32:00,41.7,32.0,28.38,SSW,211,0.0,5.8,48,0.00,,,-99.99,wx200d/1.3,2013-04-01 14:32:00,
2013-04-01 10:38:00,42.3,32.0,28.38,SSW,209,2.2,3.1,45,0.00,,,-99.99,wx200d/1.3,2013-04-01 14:38:00,
2013-04-01 10:44:00,43.0,32.0,28.38,SSW,198,0.0,2.2,40,0.00,,,-99.99,wx200d/1.3,2013-04-01 14:44:00,
2013-04-01 10:50:00,44.2,32.0,28.38,WSW,237,5.8,5.8,35,0.00,,,-99.99,wx200d/1.3,2013-04-01 14:50:00,
2013-04-01 10:56:00,44.6,32.0,28.38,South,175,2.7,2.7,30,0.00,,,-99.99,wx200d/1.3,2013-04-01 14:56:00,
2013-04-01 11:02:00,44.2,32.0,28.38,SW,226,0.0,0.0,29,0.00,,,-99.99,wx200d/1.3,2013-04-01 15:02:00,
2013-04-01 11:08:00,44.2,32.0,28.38,West,269,3.6,3.6,29,0.00,,,-99.99,wx200d/1.3,2013-04-01 15:08:00,
2013-04-01 11:14:00,45.1,32.0,28.38,West,264,0.0,2.2,29,0.00,,,-99.99,wx200d/1.3,2013-04-01 15:14:00,
2013-04-01 11:20:00,45.3,32.0,28.38,SE,140,4.5,4.5,28,0.00,,,-99.99,wx200d/1.3,2013-04-01 15:20:00,
2013-04-01 11:26:00,47.5,32.0,28.38,WNW,285,2.7,4.0,27,0.00,,,-99.99,wx200d/1.3,2013-04-01 15:26:00,
2013-04-01 11:32:00,49.6,32.0,28.38,South,180,3.1,3.1,21,0.00,,,-99.99,wx200d/1.3,2013-04-01 15:32:00,
2013-04-01 11:38:00,50.2,32.0,28.35,South,177,5.4,5.4,19,0.00,,,-99.99,wx200d/1.3,2013-04-01 15:38:00,
2013-04-01 11:44:00,50.9,32.0,28.35,West,270,0.0,4.0,19,0.00,,,-99.99,wx200d/1.3,2013-04-01 15:44:00,
2013-04-01 11:50:00,51.6,32.0,28.35,SW,229,3.1,4.9,19,0.00,,,-99.99,wx200d/1.3,2013-04-01 15:50:00,
2013-04-01 11:56:00,52.3,32.0,28.35,SE,137,4.0,0.0,18,0.00,,,-99.99,wx200d/1.3,2013-04-01 15:56:00,
2013-04-01 12:02:00,52.9,32.0,28.35,South,186,4.9,8.1,18,0.00,,,-99.99,wx200d/1.3,2013-04-01 16:02:00,
2013-04-01 12:08:00,52.7,32.0,28.35,SSW,205,4.5,4.5,18,0.00,,,-99.99,wx200d/1.3,2013-04-01 16:08:00,
2013-04-01 12:14:00,52.0,32.0,28.35,SSW,213,0.0,0.0,18,0.00,,,-99.99,wx200d/1.3,2013-04-01 16:14:00,
2013-04-01 12:20:00,51.3,32.0,28.35,SSW,192,5.4,5.4,19,0.00,,,-99.99,wx200d/1.3,2013-04-01 16:20:00,
2013-04-01 12:26:00,50.4,32.0,28.35,SSW,208,4.9,4.9,19,0.00,,,-99.99,wx200d/1.3,2013-04-01 16:26:00,
2013-04-01 12:32:00,50.0,32.0,28.35,SW,229,3.1,3.1,19,0.00,,,-99.99,wx200d/1.3,2013-04-01 16:32:00,
2013-04-01 12:38:00,50.5,32.0,28.35,WSW,245,5.4,6.3,19,0.00,,,-99.99,wx200d/1.3,2013-04-01 16:38:00,
2013-04-01 12:44:00,51.4,32.0,28.35,South,185,5.8,5.8,19,0.00,,,-99.99,wx200d/1.3,2013-04-01 16:44:00,
2013-04-01 12:50:00,52.5,32.0,28.35,SW,220,4.0,4.0,18,0.00,,,-99.99,wx200d/1.3,2013-04-01 16:50:00,
2013-04-01 12:56:00,52.3,32.0,28.35,West,262,4.5,4.9,18,0.00,,,-99.99,wx200d/1.3,2013-04-01 16:56:00,
2013-04-01 13:02:00,53.2,32.0,28.35,SSW,201,5.8,8.7,18,0.00,,,-99.99,wx200d/1.3,2013-04-01 17:02:00,
2013-04-01 13:08:00,52.9,32.0,28.35,SSE,156,5.4,8.1,18,0.00,,,-99.99,wx200d/1.3,2013-04-01 17:08:00,
2013-04-01 13:14:00,51.6,32.0,28.35,South,174,4.0,4.0,19,0.00,,,-99.99,wx200d/1.3,2013-04-01 17:14:00,
2013-04-01 13:20:00,50.5,32.0,28.32,WSW,239,5.4,5.4,19,0.00,,,-99.99,wx200d/1.3,2013-04-01 17:20:00,
2013-04-01 13:26:00,50.4,32.0,28.32,WSW,256,5.4,5.4,19,0.00,,,-99.99,wx200d/1.3,2013-04-01 17:26:00,
2013-04-01 13:32:00,51.1,32.0,28.32,SW,220,4.5,10.5,19,0.00,,,-99.99,wx200d/1.3,2013-04-01 17:32:00,
2013-04-01 13:38:00,53.2,32.0,28.32,SE,146,6.7,6.7,18,0.00,,,-99.99,wx200d/1.3,2013-04-01 17:38:00,
2013-04-01 13:44:00,53.6,32.0,28.32,NW,312,8.1,8.1,18,0.00,,,-99.99,wx200d/1.3,2013-04-01 17:44:00,
2013-04-01 13:50:00,52.9,32.0,28.32,South,183,3.6,6.3,18,0.00,,,-99.99,wx200d/1.3,2013-04-01 17:50:00,
2013-04-01 13:56:00,53.1,32.0,28.32,SSE,153,4.0,9.6,18,0.00,,,-99.99,wx200d/1.3,2013-04-01 17:56:00,
2013-04-01 14:02:00,53.1,32.0,28.32,SSW,194,7.6,13.2,18,0.00,,,-99.99,wx200d/1.3,2013-04-01 18:02:00,
2013-04-01 14:08:00,53.1,32.0,28.32,South,180,7.6,7.6,18,0.00,,,-99.99,wx200d/1.3,2013-04-01 18:08:00,
2013-04-01 14:14:00,52.9,32.0,28.32,WSW,240,7.2,8.7,18,0.00,,,-99.99,wx200d/1.3,2013-04-01 18:14:00,
2013-04-01 14:20:00,52.3,32.0,28.29,West,265,6.3,6.3,18,0.00,,,-99.99,wx200d/1.3,2013-04-01 18:20:00,
2013-04-01 14:26:00,51.1,32.0,28.29,NNE,20,4.5,4.5,19,0.00,,,-99.99,wx200d/1.3,2013-04-01 18:26:00,
2013-04-01 14:32:00,49.3,32.0,28.29,NNE,23,2.7,4.0,19,0.00,,,-99.99,wx200d/1.3,2013-04-01 18:32:00,
2013-04-01 14:38:00,47.7,32.0,28.32,NE,46,4.5,4.5,19,0.00,,,-99.99,wx200d/1.3,2013-04-01 18:38:00,
2013-04-01 14:44:00,42.1,32.0,28.32,East,91,3.6,5.4,23,0.00,,,-99.99,wx200d/1.3,2013-04-01 18:44:00,
2013-04-01 14:50:00,40.8,32.0,28.35,ESE,121,0.0,4.0,29,0.00,,,-99.99,wx200d/1.3,2013-04-01 18:50:00,
2013-04-01 14:56:00,40.3,32.0,28.35,North,1,3.1,4.9,30,0.00,,,-99.99,wx200d/1.3,2013-04-01 18:56:00,
2013-04-01 15:02:00,40.3,32.0,28.35,East,88,0.0,2.7,30,0.00,,,-99.99,wx200d/1.3,2013-04-01 19:02:00,
2013-04-01 15:08:00,40.3,32.0,28.35,West,267,0.0,0.0,30,0.00,,,-99.99,wx200d/1.3,2013-04-01 19:08:00,
2013-04-01 15:14:00,40.3,32.0,28.35,ESE,117,0.0,0.0,30,0.00,,,-99.99,wx200d/1.3,2013-04-01 19:14:00,
2013-04-01 15:20:00,40.3,32.0,28.35,ENE,71,0.0,0.0,39,0.00,,,-99.99,wx200d/1.3,2013-04-01 19:20:00,
2013-04-01 15:26:00,40.3,32.0,28.35,SW,236,4.9,4.9,39,0.00,,,-99.99,wx200d/1.3,2013-04-01 19:26:00,
2013-04-01 15:32:00,40.3,32.0,28.35,SSW,199,2.2,0.0,39,0.00,,,-99.99,wx200d/1.3,2013-04-01 19:32:00,
2013-04-01 15:38:00,40.3,32.0,28.35,West,268,2.2,0.0,39,0.00,,,-99.99,wx200d/1.3,2013-04-01 19:38:00,
2013-04-01 15:44:00,41.0,32.0,28.35,SSW,205,0.0,0.0,39,0.00,,,-99.99,wx200d/1.3,2013-04-01 19:44:00,
2013-04-01 15:50:00,41.0,32.0,28.35,SSE,147,0.0,0.0,39,0.00,,,-99.99,wx200d/1.3,2013-04-01 19:50:00,
2013-04-01 15:56:00,40.6,32.0,28.35,South,191,6.7,6.7,32,0.00,,,-99.99,wx200d/1.3,2013-04-01 19:56:00,
2013-04-01 16:02:00,40.6,32.0,28.35,NW,321,5.4,5.4,32,0.00,,,-99.99,wx200d/1.3,2013-04-01 20:02:00,
2013-04-01 16:08:00,40.6,32.0,28.35,WNW,296,3.6,5.8,32,0.00,,,-99.99,wx200d/1.3,2013-04-01 20:08:00,
2013-04-01 16:14:00,41.0,32.0,28.35,WSW,241,4.9,8.7,28,0.00,,,-99.99,wx200d/1.3,2013-04-01 20:14:00,
2013-04-01 16:20:00,40.6,32.0,28.35,SSW,198,3.1,4.9,23,0.00,,,-99.99,wx200d/1.3,2013-04-01 20:20:00,
2013-04-01 16:26:00,40.1,32.0,28.35,ESE,118,5.4,5.4,21,0.00,,,-99.99,wx200d/1.3,2013-04-01 20:26:00,
2013-04-01 16:32:00,39.9,32.0,28.35,WSW,240,3.1,3.1,21,0.00,,,-99.99,wx200d/1.3,2013-04-01 20:32:00,
2013-04-01 16:38:00,39.9,32.0,28.38,NW,321,2.2,3.6,21,0.00,,,-99.99,wx200d/1.3,2013-04-01 20:38:00,
2013-04-01 16:44:00,38.7,32.0,28.38,ENE,73,4.0,4.0,21,0.00,,,-99.99,wx200d/1.3,2013-04-01 20:44:00,
2013-04-01 16:50:00,38.7,32.0,28.38,West,274,3.1,3.1,21,0.00,,,-99.99,wx200d/1.3,2013-04-01 20:50:00,
2013-04-01 16:56:00,38.1,32.0,28.38,North,7,2.7,2.7,21,0.00,,,-99.99,wx200d/1.3,2013-04-01 20:56:00,
2013-04-01 17:02:00,38.1,32.0,28.38,NW,323,4.9,4.9,21,0.00,,,-99.99,wx200d/1.3,2013-04-01 21:02:00,
2013-04-01 17:08:00,38.1,32.0,28.38,NW,306,2.7,5.8,19,0.00,,,-99.99,wx200d/1.3,2013-04-01 21:08:00,
2013-04-01 17:14:00,37.9,32.0,28.38,East,81,3.1,3.1,19,0.00,,,-99.99,wx200d/1.3,2013-04-01 21:14:00,
2013-04-01 17:20:00,37.4,32.0,28.41,ESE,104,5.8,5.8,19,0.00,,,-99.99,wx200d/1.3,2013-04-01 21:20:00,
2013-04-01 17:26:00,37.4,32.0,28.41,NNE,27,3.1,4.0,19,0.00,,,-99.99,wx200d/1.3,2013-04-01 21:26:00,
2013-04-01 17:32:00,37.0,32.0,28.41,NE,41,4.9,4.9,19,0.00,,,-99.99,wx200d/1.3,2013-04-01 21:32:00,
2013-04-01 17:38:00,36.9,32.0,28.41,NNW,327,3.6,7.6,19,0.00,,,-99.99,wx200d/1.3,2013-04-01 21:38:00,
2013-04-01 17:44:00,36.5,32.0,28.41,NNE,12,4.9,4.9,19,0.00,,,-99.99,wx200d/1.3,2013-04-01 21:44:00,
2013-04-01 17:50:00,36.5,32.0,28.41,North,10,4.0,4.0,19,0.00,,,-99.99,wx200d/1.3,2013-04-01 21:50:00,
2013-04-01 17:56:00,36.3,32.0,28.41,NNW,328,4.0,4.0,19,0.00,,,-99.99,wx200d/1.3,2013-04-01 21:56:00,
2013-04-01 18:02:00,36.1,32.0,28.41,East,101,2.2,0.0,19,0.00,,,-99.99,wx200d/1.3,2013-04-01 22:02:00,
2013-04-01 18:08:00,36.1,32.0,28.41,North,353,3.1,3.1,19,0.00,,,-99.99,wx200d/1.3,2013-04-01 22:08:00,
2013-04-01 18:14:00,36.0,32.0,28.41,ESE,108,2.2,2.7,19,0.00,,,-99.99,wx200d/1.3,2013-04-01 22:14:00,
2013-04-01 18:20:00,35.8,32.0,28.41,WSW,253,0.0,0.0,19,0.00,,,-99.99,wx200d/1.3,2013-04-01 22:20:00,
2013-04-01 18:26:00,36.0,32.0,28.41,ENE,58,3.1,3.1,19,0.00,,,-99.99,wx200d/1.3,2013-04-01 22:26:00,
2013-04-01 18:32:00,36.1,32.0,28.41,WNW,288,4.5,8.7,19,0.00,,,-99.99,wx200d/1.3,2013-04-01 22:32:00,
2013-04-01 18:38:00,36.1,32.0,28.41,NNE,33,6.3,0.0,19,0.00,,,-99.99,wx200d/1.3,2013-04-01 22:38:00,
2013-04-01 18:44:00,36.0,32.0,28.41,NNW,346,4.0,4.0,19,0.00,,,-99.99,wx200d/1.3,2013-04-01 22:44:00,
2013-04-01 18:50:00,35.6,32.0,28.41,SE,140,4.9,4.9,19,0.00,,,-99.99,wx200d/1.3,2013-04-01 22:50:00,
2013-04-01 18:56:00,35.2,32.0,28.41,South,183,6.7,8.1,20,0.00,,,-99.99,wx200d/1.3,2013-04-01 22:56:00,
2013-04-01 19:02:00,35.1,32.0,28.41,ENE,74,4.9,4.9,20,0.00,,,-99.99,wx200d/1.3,2013-04-01 23:02:00,
2013-04-01 19:08:00,34.7,32.0,28.44,SW,223,4.5,4.5,20,0.00,,,-99.99,wx200d/1.3,2013-04-01 23:08:00,
2013-04-01 19:14:00,34.3,32.0,28.44,South,183,4.9,4.9,20,0.00,,,-99.99,wx200d/1.3,2013-04-01 23:14:00,
2013-04-01 19:20:00,34.0,32.0,28.44,West,270,3.1,6.3,20,0.00,,,-99.99,wx200d/1.3,2013-04-01 23:20:00,
2013-04-01 19:26:00,33.8,32.0,28.44,ENE,57,3.6,3.6,20,0.00,,,-99.99,wx200d/1.3,2013-04-01 23:26:00,
2013-04-01 19:32:00,33.6,32.0,28.44,WSW,242,3.6,4.9,20,0.00,,,-99.99,wx200d/1.3,2013-04-01 23:32:00,
2013-04-01 19:38:00,33.4,32.0,28.44,North,357,6.3,6.3,20,0.00,,,-99.99,wx200d/1.3,2013-04-01 23:38:00,
2013-04-01 19:44:00,33.3,32.0,28.44,NNE,23,2.7,2.7,20,0.00,,,-99.99,wx200d/1.3,2013-04-01 23:44:00,
2013-04-01 19:50:00,33.1,32.0,28.44,NNW,341,4.9,4.9,20,0.00,,,-99.99,wx200d/1.3,2013-04-01 23:50:00,
2013-04-01 19:56:00,32.9,32.0,28.44,NW,320,2.7,3.1,20,0.00,,,-99.99,wx200d/1.3,2013-04-01 23:56:00,
2013-04-01 20:02:00,32.7,32.0,28.44,NW,323,3.1,3.6,20,0.00,,,-99.99,wx200d/1.3,2013-04-02 00:02:00,
2013-04-01 20:08:00,32.5,32.0,28.47,ENE,78,0.0,2.7,20,0.00,,,-99.99,wx200d/1.3,2013-04-02 00:08:00,
2013-04-01 20:14:00,32.4,32.0,28.47,ESE,106,0.0,0.0,20,0.00,,,-99.99,wx200d/1.3,2013-04-02 00:14:00,
2013-04-01 20:20:00,32.2,32.0,28.47,SW,226,2.2,3.1,20,0.00,,,-99.99,wx200d/1.3,2013-04-02 00:20:00,
2013-04-01 20:26:00,32.2,32.0,28.47,North,353,4.5,4.5,20,0.00,,,-99.99,wx200d/1.3,2013-04-02 00:26:00,
2013-04-01 20:32:00,32.2,32.0,28.47,SSE,152,3.1,3.1,20,0.00,,,-99.99,wx200d/1.3,2013-04-02 00:32:00,
2013-04-01 20:38:00,31.8,32.0,28.47,South,183,0.0,3.1,20,0.00,,,-99.99,wx200d/1.3,2013-04-02 00:38:00,
2013-04-01 20:44:00,31.8,32.0,28.47,SE,129,2.2,0.0,20,0.00,,,-99.99,wx200d/1.3,2013-04-02 00:44:00,
2013-04-01 20:50:00,31.5,32.0,28.47,NNW,334,4.0,4.9,20,0.00,,,-99.99,wx200d/1.3,2013-04-02 00:50:00,
2013-04-01 20:56:00,31.5,32.0,28.47,North,353,3.1,0.0,20,0.00,,,-99.99,wx200d/1.3,2013-04-02 00:56:00,
2013-04-01 21:02:00,31.1,32.0,28.47,ENE,61,3.1,0.0,20,0.00,,,-99.99,wx200d/1.3,2013-04-02 01:02:00,
2013-04-01 21:08:00,31.1,32.0,28.47,WSW,243,5.8,7.6,20,0.00,,,-99.99,wx200d/1.3,2013-04-02 01:08:00,
2013-04-01 21:14:00,31.1,32.0,28.47,East,88,2.7,4.0,20,0.00,,,-99.99,wx200d/1.3,2013-04-02 01:14:00,
2013-04-01 21:20:00,30.9,32.0,28.50,NW,304,0.0,0.0,20,0.00,,,-99.99,wx200d/1.3,2013-04-02 01:20:00,
2013-04-01 21:26:00,30.6,32.0,28.50,South,175,4.0,4.0,20,0.00,,,-99.99,wx200d/1.3,2013-04-02 01:26:00,
2013-04-01 21:32:00,30.6,32.0,28.50,WSW,250,3.1,3.6,20,0.00,,,-99.99,wx200d/1.3,2013-04-02 01:32:00,
2013-04-01 21:38:00,30.4,32.0,28.47,ESE,123,3.6,5.8,20,0.00,,,-99.99,wx200d/1.3,2013-04-02 01:38:00,
2013-04-01 21:44:00,30.2,32.0,28.47,East,89,3.1,0.0,20,0.00,,,-99.99,wx200d/1.3,2013-04-02 01:44:00,
2013-04-01 21:50:00,30.0,32.0,28.50,ENE,58,5.4,5.4,20,0.00,,,-99.99,wx200d/1.3,2013-04-02 01:50:00,
2013-04-01 21:56:00,29.8,32.0,28.50,WNW,298,5.8,5.8,20,0.00,,,-99.99,wx200d/1.3,2013-04-02 01:56:00,
2013-04-01 22:02:00,29.7,32.0,28.50,NNE,20,4.0,4.0,20,0.00,,,-99.99,wx200d/1.3,2013-04-02 02:02:00,
2013-04-01 22:08:00,29.5,32.0,28.50,North,353,4.0,4.0,20,0.00,,,-99.99,wx200d/1.3,2013-04-02 02:08:00,
2013-04-01 22:14:00,29.5,32.0,28.50,North,357,2.7,3.6,20,0.00,,,-99.99,wx200d/1.3,2013-04-02 02:14:00,
2013-04-01 22:20:00,29.3,32.0,28.53,West,260,4.9,4.9,20,0.00,,,-99.99,wx200d/1.3,2013-04-02 02:20:00,
2013-04-01 22:26:00,29.3,32.0,28.53,SSE,163,3.1,3.1,20,0.00,,,-99.99,wx200d/1.3,2013-04-02 02:26:00,
2013-04-01 22:32:00,28.9,32.0,28.53,NW,313,4.5,5.4,20,0.00,,,-99.99,wx200d/1.3,2013-04-02 02:32:00,
2013-04-01 22:38:00,28.8,32.0,28.53,NNW,343,5.4,5.8,20,0.00,,,-99.99,wx200d/1.3,2013-04-02 02:38:00,
2013-04-01 22:44:00,28.8,32.0,28.53,NE,34,6.7,6.7,20,0.00,,,-99.99,wx200d/1.3,2013-04-02 02:44:00,
2013-04-01 22:50:00,28.6,32.0,28.53,NNE,16,4.5,4.5,20,0.00,,,-99.99,wx200d/1.3,2013-04-02 02:50:00,
2013-04-01 22:56:00,28.6,32.0,28.53,NE,37,4.9,4.9,20,0.00,,,-99.99,wx200d/1.3,2013-04-02 02:56:00,
2013-04-01 23:02:00,28.4,32.0,28.53,NNW,346,2.2,3.1,21,0.00,,,-99.99,wx200d/1.3,2013-04-02 03:02:00,
2013-04-01 23:08:00,28.2,32.0,28.53,NNW,342,6.3,6.3,21,0.00,,,-99.99,wx200d/1.3,2013-04-02 03:08:00,
2013-04-01 23:14:00,28.2,32.0,28.53,South,183,3.1,3.1,21,0.00,,,-99.99,wx200d/1.3,2013-04-02 03:14:00,
2013-04-01 23:20:00,28.0,32.0,28.53,NNE,21,4.0,4.0,21,0.00,,,-99.99,wx200d/1.3,2013-04-02 03:20:00,
2013-04-01 23:26:00,27.9,32.0,28.53,ENE,57,2.2,4.0,21,0.00,,,-99.99,wx200d/1.3,2013-04-02 03:26:00,
2013-04-01 23:32:00,27.9,32.0,28.53,South,190,3.6,3.6,21,0.00,,,-99.99,wx200d/1.3,2013-04-02 03:32:00,
2013-04-01 23:38:00,27.9,32.0,28.53,NNW,331,2.2,4.0,21,0.00,,,-99.99,wx200d/1.3,2013-04-02 03:38:00,
2013-04-01 23:44:00,27.7,32.0,28.53,SE,127,2.7,4.9,21,0.00,,,-99.99,wx200d/1.3,2013-04-02 03:44:00,
2013-04-01 23:50:00,27.5,32.0,28.53,East,94,2.7,5.8,21,0.00,,,-99.99,wx200d/1.3,2013-04-02 03:50:00,
2013-04-01 23:56:00,27.5,32.0,28.53,NNW,327,2.2,2.7,21,0.00,,,-99.99,wx200d/1.3,2013-04-02 03:56:00,